STARLINK-1666 (46357 NORAD) Tracking and Keplerian Element Data

This shows tracking and keplerian element data for the satellite.

Feedback or suggestion? Click here.




ElementValue
Catalog46357
NameSTARLINK-1666
Epoch Orbit177
Epoch Day331.91668981
Epoch Year2020
RAAN16.8738
Inclination52.9977
Eccentricity0.0001392
Argument of Perigee66.8446
Mean Anonmoly72.0673
Mean Motion15.38141563
Decay Rate-0.01080331
L11 46357U 20062AJ 20331.91668981 -.01080331 00000-0 -30890-1 0 9991
L22 46357 52.9977 16.8738 0001392 66.8446 72.0673 15.38141563 1775

Live tracking and technical data element details for STARLINK-1666 (NORAD 46357). STARLINK-1666 can be tracked NOW for your location showing map with azimuth and elevation plus other details from your city location.

Track the satellite on the map from your city or location and see movement details for azimuth, elevation, latitude, longitude, range, height, and movement on the map or in text.







IsCatalogInMostPopularTable: catalog: 46357, numindb: 22
Update: records affected: 1



GetName: 46357 STARLINK-1666

Hit Count: updated at: Fri, 27 Nov 2020 14:09:45 GMT